カタログに戻る

USA 40 R/B DEB

LostHEO
NORAD 44524·DEBRIS·🇺🇸 United States

打ち上げ Aug 8, 1989 から Cape Canaveral Space Force Station

Loading…

次のパス (今後24時間)

TLE

古いSource: Space-Track

元期: May 30, 2026, 13:28 UTC

1 44524U 89061BX  26150.56178977  .00033954  00000-0  12797-1 0  9998
2 44524  57.0493 231.0851 2813893 231.2993 100.1166  9.37988788204550

AllMySatでUSA 40 R/B DEBをリアルタイム追跡

Download on the App Store